Showing default

DODGE 1, 2867

Orbit data source: Space-Track

DODGE 1, 2867 is a payload satellite owned by USN NAVAIR (US) in GEO that was launched on Sat, 01 Jul 1967 UTC via a TITAN IIIC launch vehicle from the Air Force Eastern Test Range (AFETR). Payload-class satellites include a variety of spacecraft equipped with specific instruments for various scientific and technological missions. These include communications satellites like Starlink; space stations such as the ISS; scientific satellites like the Hubble; Earth observation satellites from companies like Planet Labs, Umbra, and HawkEye 360; GPS; miniature CubeSats for education and research; and military/defense satellites.

Loading next visibility...
Identifier
2867, 1967-066F
Orbit
GEO
Last TLE update
7 hours ago
Origin
Manufacturer
APL
Mission
Defense Technology
Bus & Motor
DODGE, Unknown motor
Mass
195 kg wet, 195 kg dry
Launch date (UTC)
1967-07-01 (58 years ago)
Launch vehicle
TITAN IIIC
Launch site
Air Force Eastern Test Range (AFETR)
Object type
Payload
Rocket body
Debris
Shape & HBR
Step Cyl + 2 Rod, 46 m
Radar Cross Section
2.570 m², Large (>1 m²)

Expand to show TLE details & history

TLE from 7 hours ago
0 DODGE 1
1 02867U 67066F   25128.93064561 -.00000100  00000-0  00000-0 0  9992
2 02867   1.5863 114.5310 0053211 170.0234 161.2573  1.09168304128965
Epoch: 2025-05-08T22:20Z
Definitive object data (Epoch: 2025-05-08T22:20:07.78Z)
Latitude
-0.75828°
Longitude
-116.01696°
Altitude
33,663.699 km
Speed
3.147 km/s
True Right ascension
05h 44m 02s
True Declination
0° 45' 27"
Sunlit
Object was in daylight at TLE epoch
Visualization TLE readout
Latitude
1.56929°
Longitude
2.50392°
Altitude
33,424.308 km
Speed
3.166 km/s
Apparent Right ascension
13h 37m 00s
Apparent Declination
-4° 53' 05"
Sunlit
Object is in daylight
Visualization observer readout
Local Sidereal Time
13:46:01
Azimuth
183.181° SSW
Elevation
45.151°
Doppler factor
1
Orbital elements
Apogee altitude
33,676.663 km
Perigee altitude
33,252.648 km
Semi-major axis
39,842.792 km
Eccentricity
0.0053211
Inclination
1.5863°
RAAN
114.531°
Arg. of periapsis
170.0234°
True anomaly
161.452°
Mean anomaly
161.2573°
Eccentric anomaly
161.35477°
Mean motion
0.27291 °/min
BSTAR
Unknown
Orbital period
1319.12 mins
Loading historical data...
2867 neighbors
Loading maneuver chart data...
Loading SW <> Apogee altitude chart data...
Loading historical data...
Loading historical data...
Loading historical data...
Loading historical data...
Loading historical data...
Loading historical data...
Loading historical data...

DODGE 1 Visibility forecast

Observer location: undefined°, undefined°

Span
Click to sort rows by Start time (UTC) header in descending order
Start Az.
Max El. time (UTC)
Max El. Az.
Max El.
End time (UTC)
End Az.
1440 mins2025-05-09 05:37:19.004Z183.18° SSW2025-05-09 05:58:19.004Z182.402° SSW35.332°2025-05-10 05:37:19.004Z136.829° SSE
|